GW0787 Weather Reports


Display with metric or nautical units.
time (UTC)temp
F
wind
direction
speed
MPH
gust
MPH
rain 1hr
in
rain 24hr
in
rain mn
in
humidity
%
barometer
mb
20260503230051 83 114 0.0 6.0 0.00 0.00 0.00 22 1009.9
20260503224549 83 97 1.0 4.0 0.00 0.00 0.00 20 1010.2
20260503223047 85 174 0.0 8.0 0.00 0.00 0.00 22 1010.4
20260503221544 86 232 1.0 7.0 0.00 0.00 0.00 19 1010.6
20260503220047 84 210 2.0 7.0 0.00 0.00 0.00 21 1010.9
20260503214538 84 233 3.0 9.0 0.00 0.00 0.00 19 1011.1
20260503213037 83 218 2.0 8.0 0.00 0.00 0.00 20 1011.4
20260503211534 84 285 2.0 6.0 0.00 0.00 0.00 20 1011.6
20260503210030 82 162 1.0 7.0 0.00 0.00 0.00 23 1011.9
20260503204526 80 133 1.0 5.0 0.00 0.00 0.00 23 1012.2
20260503203029 79 51 1.0 3.0 0.00 0.00 0.00 21 1012.4
20260503201521 79 324 0.0 5.0 0.00 0.00 0.00 24 1012.6
20260503200019 79 224 0.0 7.0 0.00 0.00 0.00 25 1012.8
20260503194516 79 187 1.0 5.0 0.00 0.00 0.00 26 1013.1
20260503193014 78 285 1.0 7.0 0.00 0.00 0.00 25 1013.4
20260503191518 77 249 1.0 4.0 0.00 0.00 0.00 32 1013.6
20260503190005 74 27 0.0 3.0 0.00 0.00 0.00 34 1013.9
20260503184503 74 170 0.0 3.0 0.00 0.00 0.00 35 1014.1
20260503183111 73 175 0.0 4.0 0.00 0.00 0.00 36 1014.4
20260503181608 71 158 1.0 4.0 0.00 0.00 0.00 39 1014.7
20260503180050 68 62 0.0 3.0 0.00 0.00 0.00 42 1014.9
20260503174547 66 312 0.0 3.0 0.00 0.00 0.00 46 1015.1
20260503173053 65 80 0.0 4.0 0.00 0.00 0.00 47 1015.3
20260503171538 63 126 0.0 4.0 0.00 0.00 0.00 52 1015.6
20260503081531 46 281 0.0 0.0 0.00 0.00 0.00 84 1016.8
20260503071512 48 281 0.0 0.0 0.00 0.00 0.00 83 1016.6
20260503054513 52 282 0.0 0.0 0.00 0.00 0.00 78 1016.1
20260503053007 52 282 0.0 0.0 0.00 0.00 0.00 78 1016.0
20260503051507 53 282 0.0 0.0 0.00 0.00 0.00 77 1015.9
20260503050022 54 282 0.0 0.0 0.00 0.00 0.00 73 1015.7
20260503044506 55 282 0.0 0.0 0.00 0.00 0.00 73 1015.6
20260503043005 56 282 0.0 0.0 0.00 0.00 0.00 71 1015.4
20260503041508 57 282 0.0 0.0 0.00 0.00 0.00 70 1015.2
20260503040005 58 282 0.0 0.0 0.00 0.00 0.00 67 1014.8
20260503034504 59 282 0.0 0.0 0.00 0.00 0.00 67 1014.4
20260503033004 60 269 0.0 0.0 0.00 0.00 0.00 66 1014.0
20260503031503 63 268 0.0 0.0 0.00 0.00 0.00 59 1013.7
20260503030005 65 270 0.0 0.0 0.00 0.00 0.00 55 1013.6
20260503024503 66 270 0.0 0.0 0.00 0.00 0.00 53 1013.4
20260503023003 68 270 0.0 0.0 0.00 0.00 0.00 49 1013.3
20260503021501 70 270 0.0 0.0 0.00 0.00 0.00 47 1013.3
20260503020001 72 270 0.0 0.0 0.00 0.00 0.00 39 1013.3
20260503014500 76 270 0.0 0.0 0.00 0.00 0.00 37 1013.3
20260503013059 80 268 1.0 5.0 0.00 0.00 0.00 29 1013.3
20260503011604 82 235 1.0 6.0 0.00 0.00 0.00 24 1013.3
20260503010055 81 216 3.0 6.0 0.00 0.00 0.00 24 1013.4
20260503004555 80 241 3.0 10.0 0.00 0.00 0.00 23 1013.4
20260503003052 82 222 4.0 8.0 0.00 0.00 0.00 23 1013.5
20260503001559 82 237 3.0 8.0 0.00 0.00 0.00 24 1013.5
20260503000104 79 247 1.0 7.0 0.00 0.00 0.00 26 1013.6
20260502234555 80 270 3.0 7.0 0.00 0.00 0.00 25 1013.6
20260502233059 82 217 1.0 4.0 0.00 0.00 0.00 22 1013.8
20260502231557 82 211 1.0 8.0 0.00 0.00 0.00 28 1014.1